Location: Kumla
(59.1265°N, 15.1401°E)
Time: 16:16:21
(UTC+01:00)

Transit 2A - Pass Details

Date: 09 December 2023
Orbit: 600 x 953 km, 66.7° (Epoch: 21 February)

Event Time Altitude Azimuth Distance (km) Brightness Sun altitude
Rises 13:41:39 0° 170° (S) 3,127 10.2 5.0°
Reaches altitude 10° 13:44:54 10° 149° (SSE) 2,140 8.8 4.8°
Maximum altitude 13:47:44 16° 112° (ESE) 1,735 7.9 4.6°
Drops below altitude 10° 13:50:27 10° 76° (ENE) 2,044 7.9 4.5°
Sets 13:53:27 0° 54° (NE) 2,914 8.4 4.3°
